User: anonymous   Login
Location: Rometta
(44.2000°N, 10.0500°E)
Time: 03:29:49
(UTC+00:00)
Language:

BREEZE-M DEB (TANK) - Orbit

View from above orbital plane
View from above orbital plane
View from above satellite
View from above satellite

Ground track
Ground track

The orbit data is extracted from the following two-line orbital elements,

1 31863U 07032B   21107.33870279  .00000003  00000-0  44031-4 0  9992
2 31863  45.8947 176.8509 4956287 192.4759 148.4661  5.52298794276831
Epoch (UTC): 17 April 2021 08:07:43
Eccentricity: 0.4956287
inclination: 45.8947°
perigee height: 440 km
apogee height: 13841 km
right ascension of ascending node: 176.8509°
argument of perigee: 192.4759°
revolutions per day: 5.52298794
mean anomaly at epoch: 148.4661°
orbit number at epoch: 27683

The dashed part of the orbit path shows where the satellite is in the earth's shadow,  

DLR